Location: Unspecified
(48.5539°N, 71.6350°W)
Time: 21:41:30
(UTC-05:00)

ISS - Pass Details

Date: 31 January 2019
Orbit: 403 x 411 km, 51.6° (Epoch: 17 February)

Event Time Altitude Azimuth Distance (km) Brightness Sun altitude
Rises 21:35:27 0° 286° (WNW) 2,344 - -47.1°
Reaches altitude 10° 21:37:52 10° 269° (W) 1,480 - -47.4°
Maximum altitude 21:40:23 20° 220° (SW) 1,011 - -47.8°
Drops below altitude 10° 21:42:54 10° 170° (S) 1,474 - -48.1°
Sets 21:45:19 0° 153° (SSE) 2,332 - -48.4°
